[[{"header":{"parameterUnit":"m.s-1","parameterCategory":1,"la1":30.2991,"la2":30.254,"lo1":-89.0895,"lo2":-89.0444,"dy":0.0017,"dx":0.0017,"nx":28,"ny":28,"refTime":"2025-08-07T09:00:00:Z","depth":0,"parameterNumber":2,"parameterNumberName":"U-component_of_WINDS"},"data":[0,0,0,0,0,0,0,0,0,0,0,0,0,0,0,0,0,0,0,0,0,0,0,0,0,0,0,0,0,0,0,0,0,0,0,0,0,0,0,0,0,0,0,0,0,0,0,0,0,0,0,0,0,0,0,0,0,0,-0.0703,-0.0701,0,-0.0572,-0.057,-0.0569,-0.0537,-0.0538,-0.0539,-0.054,-0.0405,-0.04,-0.0396,0,0,0,0,0,0,0,0,0,0,0,0,0,-0.0923,-0.0919,-0.0703,-0.0701,-0.0699,-0.0572,-0.057,-0.0569,-0.0537,-0.0538,-0.0539,-0.054,-0.0406,-0.0401,-0.0396,0,0,0,0,0,0,0,0,0,0,0,0,0,-0.0813,-0.0918,-0.0703,-0.0669,-0.0664,-0.0573,-0.057,-0.0568,-0.0537,-0.0538,-0.054,-0.0541,-0.0408,-0.0401,-0.0395,-0.0328,0,0,-0.0375,-0.0372,0,0,0,0,0,0,0,0,-0.0819,-0.0805,-0.0675,-0.0671,-0.0666,-0.0572,-0.0598,-0.0488,-0.0537,-0.0585,-0.054,-0.0541,-0.0459,-0.0449,-0.0421,-0.0322,-0.0316,-0.0374,-0.037,-0.0367,-0.0365,0,0,0,0,0,0,0,-0.0827,-0.081,-0.0651,-0.0673,-0.0667,-0.0659,-0.0645,-0.0577,-0.0517,-0.0581,-0.0579,-0.0564,-0.0457,-0.0428,-0.0418,-0.0314,-0.0374,-0.0368,-0.0364,-0.0362,-0.0152,-0.015,0,0,0,0,0,0,-0.0841,-0.0817,-0.0655,-0.0647,-0.0747,-0.0654,-0.0638,-0.0601,-0.0517,-0.0506,-0.0563,-0.0563,-0.0438,-0.0426,-0.0413,-0.0329,-0.0367,-0.0361,-0.0357,-0.0154,-0.0152,-0.015,0,0,0,0,0,0,-0.0846,-0.0827,-0.066,-0.0731,-0.0709,-0.0649,-0.0607,-0.0598,-0.0568,-0.0503,-0.0492,-0.0544,-0.0439,-0.0422,-0.0349,-0.0324,-0.0358,-0.0352,-0.0155,-0.0153,-0.0151,-0.016,0,0,0,0,0,0,-0.0852,-0.0829,-0.0803,-0.0731,-0.0706,-0.06,-0.0606,-0.0594,-0.0557,-0.0556,-0.0483,-0.0472,-0.0439,-0.0359,-0.0343,-0.0315,-0.0347,-0.0157,-0.0154,-0.0152,-0.0162,-0.0159,-0.0156,0,0,0,0,0,-0.086,-0.0811,-0.0802,-0.0783,-0.0673,-0.0598,-0.0584,-0.0547,-0.0555,-0.0529,-0.0487,-0.0474,-0.0329,-0.0352,-0.0333,-0.0303,-0.0159,-0.0155,-0.0152,-0.0164,-0.0159,-0.0156,0,0,0,0,0,0,-0.0882,-0.0801,-0.079,-0.0717,-0.0665,-0.0593,-0.0559,-0.0544,-0.0488,-0.0489,-0.0445,-0.0429,-0.0359,-0.0323,-0.0351,-0.0234,-0.0244,-0.0236,-0.0259,-0.0255,-0.0252,-0.0262,-0.0342,0,0,0,0,0,-0.0878,-0.0825,-0.0757,-0.0698,-0.0673,-0.062,-0.0586,-0.0562,-0.0507,-0.0484,-0.0437,-0.0383,-0.0325,-0.0288,-0.0231,-0.0156,-0.014,-0.0126,-0.0123,-0.0121,-0.0115,-0.0072,-0.0066,-0.0138,-0.0138,-0.0138,0,0,-0.087,-0.0819,-0.0788,-0.0701,-0.0658,-0.0604,-0.0602,-0.0544,-0.0503,-0.0475,-0.0404,-0.0367,-0.0304,-0.023,-0.0195,-0.0198,-0.0091,-0.0116,-0.0115,-0.011,-0.0068,-0.0061,-0.0055,-0.0136,-0.0136,-0.0136,0,0,-0.0827,-0.0783,-0.073,-0.0686,-0.0621,-0.0586,-0.0573,-0.0504,-0.0478,-0.0406,-0.0384,-0.0333,-0.0235,-0.019,-0.0155,-0.0093,-0.0079,-0.0076,-0.0059,-0.0018,-0.0012,-0.0007,0.0015,0.0022,-0.007,-0.007,-0.007,0,-0.0825,-0.0742,-0.0704,-0.0647,-0.0609,-0.0581,-0.0526,-0.0485,-0.0405,-0.0379,-0.0384,-0.0259,-0.0214,-0.0129,-0.0114,-0.0086,-0.007,-0.0084,-0.0016,-0.0011,-0.0005,0.0016,0.0024,-0.007,-0.007,-0.007,-0.007,0,-0.0743,-0.0686,-0.065,-0.0573,-0.0531,-0.0475,-0.0427,-0.0389,-0.0368,-0.0333,-0.0258,-0.0204,-0.0135,-0.0113,-0.0092,-0.0024,-0.0028,-0.0025,-0.0035,0.0001,0.0022,0.003,-0.007,-0.007,-0.007,-0.007,0,0,-0.0711,-0.0613,-0.0601,-0.0565,-0.049,-0.0445,-0.0387,-0.032,-0.0288,-0.0233,-0.0183,-0.01,-0.0096,-0.0056,-0.0029,0.0007,0.0052,0.0006,0.0008,0.0012,0.013,0.0127,0.0136,0.0062,0.0064,0.0065,0.0125,0,-0.066,-0.0557,-0.0519,-0.0434,-0.0381,-0.0353,-0.0302,-0.025,-0.0215,-0.0164,-0.0124,-0.0066,-0.0066,-0.0041,-0.0004,0.0038,0.0076,0.0035,0.0109,0.0111,0.0091,0.0147,0.0143,0.0197,0.0133,0.0135,0.0136,0,-0.0586,-0.053,-0.044,-0.0371,-0.0347,-0.0302,-0.0237,-0.0189,-0.0129,-0.0106,-0.006,-0.0036,0.0026,0.0014,0.01,0.0071,0.0104,0.013,0.0133,0.0141,0.0125,0.0155,0.0215,0.0222,0.0149,0.0148,0.0147,0,-0.0572,-0.0474,-0.0407,-0.0378,-0.0295,-0.0265,-0.0229,-0.017,-0.0132,-0.0075,-0.005,0.0014,0.0049,0.0098,0.0139,0.0126,0.0222,0.0213,0.0243,0.0242,0.0262,0.026,0.0326,0.0284,0.0284,0.0283,0.0283,0,-0.0519,-0.0465,-0.04,-0.0359,-0.0297,-0.0254,-0.0194,-0.0156,-0.0104,-0.0055,-0.0026,0.002,0.0072,0.0125,0.0157,0.0224,0.024,0.0261,0.0269,0.0258,0.0255,0.0279,0.0277,0.0286,0.0285,0.0285,0.0284,0,-0.0494,-0.0449,-0.0374,-0.0302,-0.0282,-0.024,-0.0178,-0.0136,-0.0099,-0.0037,-0.002,0.0038,0.0102,0.0148,0.0231,0.0253,0.0325,0.0333,0.0304,0.0308,0.0336,0.0333,0.042,0.0434,0.0382,0.0383,0.0383,0,-0.0463,-0.0421,-0.0344,-0.0309,-0.0274,-0.0217,-0.0178,-0.0134,-0.0094,-0.0022,0.0011,0.0077,0.0132,0.0233,0.0283,0.0346,0.0356,0.0383,0.0366,0.0354,0.0356,0.0353,0.0357,0.0384,0.0385,0.0385,0.0385,0,-0.0414,-0.0393,-0.0338,-0.0274,-0.0228,-0.0176,-0.0123,-0.0096,-0.0042,0.0002,0.0068,0.011,0.0195,0.026,0.0329,0.0366,0.0385,0.039,0.0401,0.039,0.0371,0.0381,0.031,0.0388,0.0388,0.0388,0.0387,0.0387,-0.0385,-0.0346,-0.0286,-0.0225,-0.018,-0.0131,-0.0089,-0.0046,0.0009,0.0081,0.0105,0.0173,0.0233,0.0327,0.0366,0.042,0.0419,0.0434,0.0438,0.0441,0.044,0.0363,0.0433,0.0433,0.0433,0.0433,0.0433,0,-0.0334,-0.0294,-0.0238,-0.0165,-0.0117,-0.0103,-0.0044,-0.0004,0.0055,0.011,0.0163,0.0239,0.0303,0.0358,0.0425,0.0458,0.0468,0.0473,0.0471,0.048,0.0437,0.0421,0.0464,0.0464,0.0464,0.0464,0.0464,0.0464,-0.0303,-0.0235,-0.0207,-0.0117,-0.0077,-0.001,0.0023,0.0068,0.0112,0.0195,0.0248,0.0284,0.0339,0.041,0.0469,0.0484,0.0507,0.051,0.0527,0.0486,0.0482,0.0479,0.0464,0.0515,0.0515,0.0565,0.0566,0.0566]},{"header":{"parameterUnit":"m.s-1","parameterCategory":1,"la1":30.2991,"la2":30.254,"lo1":-89.0895,"lo2":-89.0444,"dy":0.0017,"dx":0.0017,"nx":28,"ny":28,"refTime":"2025-08-07T09:00:00:Z","depth":0,"parameterNumber":3,"parameterNumberName":"V-component_of_WINDS"},"data":[0,0,0,0,0,0,0,0,0,0,0,0,0,0,0,0,0,0,0,0,0,0,0,0,0,0,0,0,0,0,0,0,0,0,0,0,0,0,0,0,0,0,0,0,0,0,0,0,0,0,0,0,0,0,0,0,0,0,0.3667,0.3668,0,0.3767,0.3768,0.3769,0.3848,0.3849,0.385,0.3851,0.3949,0.3951,0.3953,0,0,0,0,0,0,0,0,0,0,0,0,0,0.3538,0.354,0.3666,0.3668,0.3669,0.3766,0.3768,0.3769,0.3848,0.3849,0.385,0.3851,0.3949,0.3951,0.3953,0,0,0,0,0,0,0,0,0,0,0,0,0,0.3611,0.3541,0.3666,0.372,0.3726,0.3766,0.3768,0.377,0.3848,0.3849,0.385,0.3851,0.3948,0.3951,0.3953,0.3947,0,0,0.3962,0.3963,0,0,0,0,0,0,0,0,0.3607,0.3616,0.3711,0.3717,0.3723,0.3796,0.3759,0.3829,0.3848,0.3801,0.3851,0.3852,0.3897,0.3904,0.392,0.3952,0.3956,0.3962,0.3964,0.3965,0.3966,0,0,0,0,0,0,0,0.3602,0.3612,0.3706,0.3712,0.372,0.3738,0.3749,0.3772,0.3841,0.3806,0.3812,0.3823,0.3901,0.3917,0.3923,0.3957,0.3962,0.3965,0.3967,0.3968,0.3984,0.3983,0,0,0,0,0,0,0.3589,0.3607,0.3703,0.3709,0.3667,0.3739,0.3752,0.3771,0.3841,0.3853,0.3821,0.3826,0.3912,0.392,0.3927,0.3921,0.3965,0.3968,0.397,0.3985,0.3984,0.3982,0,0,0,0,0,0,0.3586,0.3597,0.3699,0.366,0.3674,0.374,0.3761,0.3773,0.379,0.3853,0.3865,0.3826,0.3913,0.3923,0.3941,0.3926,0.3969,0.3972,0.3987,0.3985,0.3983,0.3911,0,0,0,0,0,0,0.3582,0.3595,0.3595,0.3659,0.3676,0.3712,0.376,0.3774,0.3795,0.3802,0.3861,0.3872,0.3915,0.3936,0.3943,0.393,0.3974,0.3988,0.3986,0.3984,0.3915,0.3907,0.39,0,0,0,0,0,0.3577,0.3571,0.3595,0.3606,0.3677,0.3712,0.3721,0.3772,0.3793,0.3792,0.3833,0.387,0.3926,0.3937,0.3946,0.3934,0.399,0.3987,0.3984,0.3918,0.3909,0.39,0,0,0,0,0,0,0.3503,0.358,0.3608,0.3622,0.366,0.3725,0.3726,0.376,0.3791,0.3796,0.3857,0.3869,0.3879,0.3909,0.392,0.3929,0.3963,0.3961,0.391,0.3901,0.3893,0.3885,0.3976,0,0,0,0,0,0.3488,0.3511,0.3577,0.3583,0.3601,0.3659,0.3676,0.3712,0.3753,0.3769,0.3811,0.3847,0.3873,0.3889,0.3917,0.392,0.3932,0.3915,0.3908,0.3901,0.3899,0.39,0.3892,0.3973,0.3973,0.3973,0,0,0.3458,0.3503,0.3514,0.3569,0.3603,0.3623,0.3672,0.3693,0.3707,0.3772,0.3791,0.3822,0.3867,0.3876,0.3883,0.3901,0.3879,0.3898,0.3892,0.3894,0.3896,0.3888,0.3881,0.3971,0.3972,0.3972,0,0,0.3413,0.345,0.3458,0.349,0.354,0.3579,0.358,0.364,0.3663,0.3684,0.3731,0.3749,0.3793,0.3822,0.3842,0.3804,0.3839,0.3812,0.3772,0.3771,0.3765,0.376,0.3743,0.3737,0.381,0.3809,0.3809,0,0.3368,0.3402,0.3458,0.3474,0.3496,0.3555,0.3562,0.359,0.3645,0.3658,0.3678,0.3732,0.3767,0.3782,0.3773,0.3788,0.379,0.3805,0.3762,0.3757,0.3753,0.3737,0.3731,0.3806,0.3806,0.3806,0.3807,0,0.3344,0.3366,0.3366,0.3418,0.344,0.3451,0.3506,0.3521,0.3554,0.359,0.3607,0.3651,0.3687,0.3693,0.3726,0.3712,0.3722,0.3751,0.3785,0.374,0.3727,0.3722,0.38,0.3801,0.3803,0.3804,0,0,0.3255,0.3336,0.3335,0.3358,0.3416,0.3433,0.3446,0.3482,0.3492,0.3527,0.3537,0.3572,0.3598,0.3621,0.3658,0.3657,0.3621,0.3687,0.3688,0.367,0.3604,0.358,0.3573,0.3644,0.3643,0.3643,0.3599,0,0.3217,0.3245,0.3294,0.3304,0.3324,0.3379,0.339,0.3425,0.3458,0.3477,0.3513,0.3536,0.3571,0.3584,0.3587,0.3625,0.3608,0.3629,0.3651,0.3651,0.3636,0.3567,0.3542,0.3499,0.3595,0.3594,0.3594,0,0.3177,0.3209,0.3222,0.3275,0.3285,0.3294,0.3329,0.3348,0.3387,0.3411,0.3435,0.3474,0.3488,0.352,0.3537,0.355,0.3562,0.3582,0.3581,0.3584,0.3618,0.3564,0.3487,0.3479,0.3587,0.3587,0.3588,0,0.3108,0.3154,0.3167,0.3185,0.3249,0.3253,0.3279,0.332,0.3337,0.3367,0.3378,0.3409,0.3425,0.3447,0.3492,0.3512,0.3503,0.354,0.352,0.3519,0.3515,0.3514,0.3435,0.3526,0.3526,0.3526,0.3526,0,0.3059,0.3064,0.3136,0.3143,0.3149,0.3204,0.3208,0.3239,0.3274,0.3287,0.3337,0.3347,0.3408,0.3424,0.3459,0.3466,0.3474,0.3491,0.35,0.3486,0.3483,0.3493,0.3496,0.3524,0.3525,0.3525,0.3525,0,0.2982,0.3031,0.3048,0.3106,0.3121,0.3122,0.3171,0.3179,0.3214,0.3229,0.3236,0.3291,0.3312,0.336,0.3395,0.3418,0.3415,0.3433,0.3402,0.3407,0.3384,0.3384,0.3307,0.3298,0.3396,0.3395,0.3394,0,0.2947,0.2952,0.301,0.3023,0.3047,0.3067,0.3084,0.3137,0.3153,0.3197,0.3198,0.3224,0.3247,0.3279,0.332,0.3346,0.3363,0.3334,0.3367,0.3351,0.3359,0.3357,0.3356,0.3326,0.3325,0.3324,0.3323,0,0.2879,0.2902,0.2926,0.2957,0.2976,0.3003,0.3033,0.304,0.3099,0.3114,0.3137,0.3155,0.3189,0.3213,0.3244,0.3269,0.3304,0.3313,0.3309,0.3293,0.3273,0.328,0.3379,0.3314,0.3315,0.3315,0.3316,0.3316,0.282,0.2826,0.2866,0.289,0.2918,0.2944,0.2953,0.2989,0.3009,0.3042,0.3072,0.3091,0.3127,0.3173,0.3195,0.3209,0.3228,0.3223,0.3222,0.3219,0.3211,0.3273,0.3216,0.3216,0.3216,0.3217,0.3217,0,0.2752,0.278,0.2802,0.2841,0.2858,0.2892,0.2925,0.2937,0.2954,0.2985,0.3007,0.3031,0.3053,0.3096,0.3121,0.3124,0.314,0.3128,0.3128,0.3132,0.3195,0.3194,0.3114,0.3114,0.3114,0.3114,0.3114,0.3114,0.2718,0.2728,0.2755,0.2778,0.2806,0.2826,0.2842,0.2864,0.2889,0.2915,0.2934,0.2961,0.2996,0.3024,0.3045,0.3057,0.3062,0.3044,0.3061,0.3118,0.3128,0.3137,0.3137,0.3046,0.3046,0.2996,0.2996,0.2996]}]]